Location: ???????????
(54.5822°N, 39.1075°E)
Time: 14:47:17
(UTC+00:00)

BlueWalker 3 - Visible Passes

Search period start: 17 July 2025 00:00
Search period end: 27 July 2025 00:00
Orbit: 461 x 469 km, 53.2° (Epoch: 17 July)

Date Brightness Start Highest point End Pass type
(mag) Time Alt. Az. Time Alt. Az. Time Alt. Az.
17 Jul 1.9 19:21:59 10° W 19:25:36 57° SSW 19:29:11 10° ESE visible
17 Jul 3.1 20:59:56 10° W 21:02:49 22° SW 21:03:04 22° SSW visible
18 Jul 1.9 18:49:24 10° W 18:53:02 61° SSW 18:56:39 10° ESE visible
18 Jul 3.0 20:27:16 10° W 20:30:18 25° SSW 20:31:11 22° S visible
19 Jul 2.9 19:54:36 10° W 19:57:47 28° SSW 19:59:22 20° S visible
20 Jul 2.8 19:21:57 10° W 19:25:15 31° SSW 19:27:35 16° SSE visible
21 Jul 2.7 18:49:19 10° W 18:52:41 35° SSW 18:55:51 11° SE visible
21 Jul 4.2 20:29:11 10° SW 20:29:33 10° SW 20:29:44 10° SW visible
22 Jul 4.1 19:55:36 10° WSW 19:57:03 12° SW 19:58:03 11° SSW visible
23 Jul 4.0 19:22:35 10° WSW 19:24:33 14° SW 19:26:24 10° S visible
24 Jul 3.9 18:49:42 10° W 18:52:01 16° SW 18:54:19 10° S visible
